Printer-friendly version

IAU Minor Planet Center

Minor Planet Center

MPEC 2004-G45 : 2004 FC32

The following Minor Planet Electronic Circular may be linked-to from your own Web pages, but must not otherwise be redistributed electronically.


Read MPEC 2004-G44 Read MPEC 2004-G46


M.P.E.C. 2004-G45                                Issued 2004 Apr. 15, 15:07 UT

     The Minor Planet Electronic Circulars contain information on unusual
         minor planets and routine data on comets.  They are published
   on behalf of Commission 20 of the International Astronomical Union by the
          Minor Planet Center, Smithsonian Astrophysical Observatory,
                          Cambridge, MA 02138, U.S.A.

         Supported in part by the Steven and Michele Kirsch Foundation
             Prepared using the Tamkin Foundation Computer Network

                              MPC@CFA.HARVARD.EDU
          URL http://cfa-www.harvard.edu/iau/mpc.html  ISSN 1523-6714

                                   2004 FC32

                           Revision to MPEC 2004-G33

Additional Observations:
     K04F32C ) 1996 03 16.40417 13 26 07.68 +21 46 01.5                 EG045261
     K04F32C ) 1996 03 16.44236 13 26 06.78 +21 46 31.9                 EG045261
     K04F32C ) 1996 03 22.40139 13 23 35.00 +23 04 07.5                 EG045261
     K04F32C ) 1996 03 22.44306 13 23 33.42 +23 04 35.2                 EG045261

Observer details:
261 Palomar-DSS.  Observers J. Mueller, K. M. Rykoski, J. D. Mendenhall.
    Measurer G. Forti.  1.2-m Schmidt.

Orbital elements:
2004 FC32
Epoch 2004 July 14.0 TT = JDT 2453200.5                 MPC
M   6.10774              (2000.0)            P               Q
n   0.36984498     Peri.  172.65633     -0.28047986     +0.94139814
a   1.9221601      Node    80.91793     -0.89001978     -0.18197844
e   0.3393007      Incl.   10.93703     -0.35943823     -0.28399539
P   2.66           H   18.4           G   0.15           U   5
Residuals in seconds of arc
960316 261  0.3+  0.8+    040330 704  0.5-  0.5-    040408 644  0.3-  0.1+
960316 261  0.1-  0.4+    040330 704  0.2-  0.2+    040414 704  0.4+  0.5-
960322 261  0.0   1.7+    040330 704  0.0   0.3-    040414 704  0.0   0.7+
960322 261  0.6+  1.1-    040331 704  0.5+  0.5+    040414 704  0.2-  0.3+
040318 703  0.3-  0.4-    040331 704  0.4-  0.1-    040414 704  0.6+  0.9+
040318 703  0.8-  0.5+    040331 704  0.3-  0.4-    040414 704  0.2+  0.3+
040318 703  0.3+  0.9-    040331 704  0.5+  1.0-    040414 703  0.0   0.5-
040318 703  0.1+  0.1-    040331 704  0.2+  0.1-    040414 703  0.3-  0.3-
040330 704  0.1+  0.1+    040408 644  0.1-  0.0     040414 703  0.2-  0.1-
040330 704  0.1+  0.1-    040408 644  0.1-  0.0     040414 703  0.1+  0.1+

Ephemeris:
2004 FC32                a,e,i = 1.92, 0.34, 11                  q = 1.2700
Date    TT    R. A. (2000) Decl.     Delta      r     Elong.  Phase     V
2004 04 15    13 13.09   +24 48.3    0.475    1.419   145.0    23.9    18.7
2004 04 25    13 02.73   +23 59.0    0.457    1.385   139.2    28.3    18.7
2004 05 05    12 54.84   +21 43.2    0.448    1.353   132.8    33.2    18.7
2004 05 15    12 51.27   +18 08.9    0.447    1.326   126.5    37.8    18.8
2004 05 25    12 52.89   +13 30.5    0.452    1.304   120.9    41.8    18.9
2004 06 04    12 59.81   +08 04.9    0.462    1.287   116.1    45.1    19.0
2004 06 14    13 11.58   +02 09.9    0.478    1.276   112.2    47.5    19.1
2004 06 24    13 27.80   -03 58.8    0.500    1.270   108.9    49.2    19.3
2004 07 04    13 48.07   -10 05.4    0.529    1.271   106.4    50.1    19.4
2004 07 14    14 12.00   -15 54.7    0.564    1.278   104.3    50.4    19.6
2004 07 24    14 39.37   -21 13.9    0.606    1.291   102.6    50.1    19.7
2004 08 03    15 09.86   -25 52.2    0.657    1.310   101.1    49.5    19.9
2004 08 13    15 42.97   -29 41.6    0.715    1.334    99.6    48.5    20.1
2004 08 23    16 18.15   -32 37.8    0.782    1.362    98.0    47.3    20.3
2004 09 02    16 54.61   -34 39.7    0.858    1.395    96.4    46.0    20.5
2004 09 12    17 31.44   -35 49.2    0.941    1.430    94.5    44.5    20.8
2004 09 22    18 07.84   -36 10.9    1.033    1.469    92.3    43.1    21.0
2004 10 02    18 43.11   -35 50.9    1.132    1.509    89.9    41.5    21.2
2004 10 12    19 16.74   -34 56.2    1.239    1.552    87.1    40.0    21.4
2004 10 22    19 48.55   -33 33.3    1.352    1.595    84.2    38.4    21.6
2004 11 01    20 18.45   -31 48.7    1.471    1.639    80.9    36.7    21.8
2004 11 11    20 46.51   -29 47.5    1.595    1.684    77.4    35.0    22.0

Gareth V. Williams           (C) Copyright 2004 MPC           M.P.E.C. 2004-G45

Read MPEC 2004-G44 Read MPEC 2004-G46


Our Web policy. Index to the CBAT/MPC/ICQ pages.


Valid HTML 4.01!